ORBCOMM-X 1 21576U 91050C 26061.74130394 .00000372 00000+0 12268-3 0 9995 2 21576 98.3083 127.6523 0004735 117.8792 242.2879 14.43510720819418 ORBCOMM FM01 1 23545U 95017A 26061.63926549 .00007926 00000+0 73991-3 0 9995 2 23545 69.9624 147.6242 0007215 280.5478 79.4865 14.94506881651065 ORBCOMM FM02 1 23546U 95017B 26061.68397064 .00009887 00000+0 87342-3 0 9998 2 23546 69.9637 165.5809 0008504 281.7528 78.2675 14.96569964650753 ORBCOMM FM08 1 25112U 97084A 26061.78989231 .00002288 00000+0 66307-3 0 9995 2 25112 45.0118 205.4103 0006607 133.7908 226.3491 14.46947370478817 ORBCOMM FM10 1 25113U 97084B 26061.74448667 .00002108 00000+0 61757-3 0 9990 2 25113 45.0139 208.5122 0004365 101.5667 258.5675 14.46673505653946 ORBCOMM FM11 1 25114U 97084C 26061.72572766 .00001951 00000+0 57776-3 0 9998 2 25114 45.0121 209.7163 0005209 100.2558 259.8881 14.46409663478893 ORBCOMM FM12 1 25115U 97084D 26061.61525295 .00001940 00000+0 57447-3 0 9995 2 25115 45.0128 209.9678 0004257 100.2056 259.9276 14.46437613478670 ORBCOMM FM09 1 25116U 97084E 26061.60459340 .00001921 00000+0 57127-3 0 9996 2 25116 45.0133 211.2531 0005204 82.7374 277.4069 14.46264110478878 ORBCOMM FM05 1 25117U 97084F 26061.66671282 .00002400 00000+0 69199-3 0 9999 2 25117 45.0124 205.9741 0002085 124.9006 235.2042 14.47058020478030 ORBCOMM FM06 1 25118U 97084G 26061.42973809 .00002333 00000+0 67153-3 0 9997 2 25118 45.0118 206.5286 0001348 151.8466 237.6406 14.47232214478922 ORBCOMM FM07 1 25119U 97084H 26061.78107224 .00002120 00000+0 61364-3 0 9999 2 25119 45.0115 205.5787 0002648 110.0567 250.0570 14.47238649478961 ORBCOMM FM03 1 25158U 98007B 26061.63535674 .00000995 00000+0 38905-3 0 9999 2 25158 107.9643 306.7999 0043343 158.3502 201.9482 14.35283056461113 ORBCOMM FM04 1 25159U 98007C 26061.57589265 .00000997 00000+0 38870-3 0 9991 2 25159 107.9628 310.0718 0039114 155.7461 204.5531 14.35511668461296 ORBCOMM FM17 1 25413U 98046A 26061.47571335 .00000832 00000+0 33401-3 0 9998 2 25413 44.9935 118.0301 0000433 60.0367 300.0524 14.35727399440289 ORBCOMM FM18 1 25414U 98046B 26061.61998123 .00001635 00000+0 56579-3 0 9996 2 25414 44.9940 27.6312 0002615 158.7517 201.3440 14.39421604441475 ORBCOMM FM19 1 25415U 98046C 26061.63258707 .00001670 00000+0 57880-3 0 9991 2 25415 44.9951 29.9611 0001315 157.9864 11.8167 14.39246168441422 ORBCOMM FM20 1 25416U 98046D 26061.64747982 .00001243 00000+0 45482-3 0 9992 2 25416 44.9950 36.6610 0001575 281.9467 78.1205 14.37877302441451 ORBCOMM FM16 1 25417U 98046E 26061.80353759 .00001554 00000+0 53569-3 0 9996 2 25417 44.9947 23.8763 0002836 185.0853 174.9967 14.39810475441516 ORBCOMM FM15 1 25418U 98046F 26060.94344064 .00000411 00000+0 17640-3 0 9991 2 25418 44.9980 33.9056 0002671 186.0202 174.0615 14.39427017441378 ORBCOMM FM14 1 25419U 98046G 26061.58389198 .00001550 00000+0 53387-3 0 9993 2 25419 44.9965 28.2842 0001376 199.4737 160.6060 14.39869078441444 ORBCOMM FM13 1 25420U 98046H 26061.31291530 .00001364 00000+0 48906-3 0 9992 2 25420 44.9981 40.2367 0002988 148.7804 211.3222 14.38425261440390 ORBCOMM FM21 1 25475U 98053A 26061.52561634 .00001018 00000+0 38009-3 0 9997 2 25475 45.0070 125.5009 0000929 216.5097 143.5688 14.37996263434425 ORBCOMM FM22 1 25476U 98053B 26061.49866651 .00001256 00000+0 44711-3 0 9992 2 25476 45.0062 118.2219 0001052 113.1737 246.9223 14.39218626434470 ORBCOMM FM23 1 25477U 98053C 26061.62579333 .00001180 00000+0 43097-3 0 9998 2 25477 45.0072 126.7121 0000563 137.2567 222.8325 14.38256907434594 ORBCOMM FM24 1 25478U 98053D 26061.52501484 .00001240 00000+0 44482-3 0 9996 2 25478 45.0068 123.4651 0000732 173.4185 186.6673 14.38901494434645 ORBCOMM FM25 1 25479U 98053E 26061.43241599 .00001289 00000+0 46085-3 0 9999 2 25479 45.0061 122.2172 0002778 126.0669 234.0438 14.38865690434922 ORBCOMM FM26 1 25480U 98053F 26061.41483385 .00001050 00000+0 39223-3 0 9992 2 25480 45.0059 120.7324 0005031 136.4516 223.6731 14.37802904434809 ORBCOMM FM27 1 25481U 98053G 26061.48334215 .00001329 00000+0 47330-3 0 9994 2 25481 45.0043 122.0746 0001658 235.9779 124.0912 14.38909206434868 ORBCOMM FM28 1 25482U 98053H 26061.35569349 .00001146 00000+0 41361-3 0 9994 2 25482 45.0055 59.8885 0003490 186.1945 173.8861 14.39005986435534 ORBCOMM FM30 1 25980U 99065A 26061.65336213 .00001003 00000+0 37533-3 0 9994 2 25980 45.0317 305.6968 0005692 230.1423 129.8926 14.37964767371642 ORBCOMM FM31 1 25981U 99065B 26061.63913739 .00000980 00000+0 36859-3 0 9990 2 25981 45.0228 299.2065 0003516 262.1515 97.8934 14.37887562371190 ORBCOMM FM32 1 25982U 99065C 26061.64717079 .00001076 00000+0 40757-3 0 9990 2 25982 45.0162 317.4686 0005770 255.3828 104.6381 14.36949238371769 ORBCOMM FM33 1 25983U 99065D 26061.66781053 .00001211 00000+0 41917-3 0 9996 2 25983 45.0272 209.3527 0008257 276.1151 83.8758 14.40767111373332 ORBCOMM FM36 1 25984U 99065E 26061.40845354 .00001383 00000+0 49018-3 0 9994 2 25984 45.0394 306.4122 0002144 147.2177 212.8806 14.38960468371606 ORBCOMM FM35 1 25985U 99065F 26061.71923656 .00001187 00000+0 43676-3 0 9997 2 25985 45.0401 312.1009 0003443 266.3265 93.7190 14.37854332371982 ORBCOMM FM34 1 25986U 99065G 26061.06426884 .00000993 00000+0 37379-3 0 9994 2 25986 45.0397 315.7098 0002837 205.4222 154.6488 14.37766617372006 ORBCOMM FM38 1 33060U 08031A 26061.64915159 .00002504 00000+0 33364-3 0 9991 2 33060 48.4385 162.2872 0003863 74.9274 285.2070 14.82694536953084 ORBCOMM FM41 1 33061U 08031B 26061.68922609 .00002386 00000+0 32254-3 0 9999 2 33061 48.4422 170.8074 0003191 54.8287 94.8832 14.82230136952565 ORBCOMM FM29 1 33062U 08031C 26061.62500221 .00002596 00000+0 34717-3 0 9995 2 33062 48.4372 178.5509 0004793 55.8343 317.9070 14.82402460952475 ORBCOMM FM39 1 33063U 08031D 26061.78434215 .00002362 00000+0 33054-3 0 9996 2 33063 48.4382 205.0478 0005958 24.0572 336.0621 14.80786009952100 ORBCOMM FM37 1 33064U 08031E 26061.65409653 .00002325 00000+0 32436-3 0 9993 2 33064 48.4378 193.7895 0004417 44.2745 329.2713 14.80979534952346 ORBCOMM FM40 1 33065U 08031F 26061.70702896 .00003023 00000+0 38859-3 0 9996 2 33065 48.4397 172.9223 0005240 63.6150 80.1385 14.83612807952520 VESSELSAT 1 1 37840U 11058C 26061.78876337 .00000395 00000+0 70471-4 0 9990 2 37840 19.9630 329.0111 0013730 151.0879 209.0287 14.11418647742888 ORBCOMM FM109 1 40086U 14040A 26061.52721116 .00000686 00000+0 18180-3 0 9997 2 40086 47.0020 235.7184 0001143 101.2649 258.8365 14.58708802618774 ORBCOMM FM107 1 40087U 14040B 26061.54224422 .00000864 00000+0 21926-3 0 9998 2 40087 47.0034 236.5016 0000738 351.0867 9.0006 14.58792102618852 ORBCOMM FM106 1 40088U 14040C 26061.13004031 .00001221 00000+0 23114-3 0 9995 2 40088 47.0609 39.6269 0016280 189.3078 170.7514 14.70278722621426 ORBCOMM FM111 1 40089U 14040D 26061.58831045 .00003679 00000+0 41414-3 0 9990 2 40089 46.9988 211.6175 0028412 349.4563 10.5736 14.88288660628695 ORBCOMM FM104 1 40090U 14040E 26061.61117505 .00000637 00000+0 17723-3 0 9991 2 40090 47.0043 272.9253 0016501 305.3480 54.5862 14.57154032618309 ORBCOMM FM103 1 40091U 14040F 26061.52954058 .00000829 00000+0 21225-3 0 9999 2 40091 47.0039 237.2776 0001296 7.2561 352.8344 14.58695256601818 ORBCOMM FM114 1 41179U 15081A 26061.54515524 .00000724 00000+0 18992-3 0 9997 2 41179 47.0042 146.1443 0001296 67.9752 292.1272 14.58716063542184 ORBCOMM FM119 1 41180U 15081B 26061.33868146 .00000846 00000+0 21611-3 0 9994 2 41180 47.0005 56.4783 0000834 214.6205 145.4626 14.58658434543402 ORBCOMM FM105 1 41181U 15081C 26061.34577877 .00000304 00000+0 12992-3 0 9995 2 41181 47.0006 86.6991 0001343 3.6976 356.3914 14.45486399538094 ORBCOMM FM110 1 41182U 15081D 26061.60287500 .00001171 00000+0 28484-3 0 9992 2 41182 47.0014 145.3457 0003561 291.4189 68.6316 14.58717336542064 ORBCOMM FM118 1 41183U 15081E 26061.56895597 .00001108 00000+0 27147-3 0 9994 2 41183 47.0035 145.8195 0003896 260.4519 99.5926 14.58712981542168 ORBCOMM FM112 1 41184U 15081F 26061.16095813 .00000884 00000+0 22380-3 0 9998 2 41184 46.9993 56.2504 0001049 41.3329 318.7636 14.58714074543320 ORBCOMM FM113 1 41185U 15081G 26061.34365481 .00000855 00000+0 21765-3 0 9994 2 41185 47.0008 55.7537 0000628 48.2924 311.8016 14.58715640543336 ORBCOMM FM115 1 41186U 15081H 26061.71384822 .00000942 00000+0 21554-3 0 9999 2 41186 46.9973 249.4527 0001107 202.2460 157.8380 14.63103256545623 ORBCOMM FM108 1 41187U 15081J 26061.44330622 .00001237 00000+0 29872-3 0 9998 2 41187 47.0060 326.8223 0002241 51.8393 308.2694 14.58727128544497 ORBCOMM FM117 1 41188U 15081K 26061.40882061 .00001172 00000+0 28489-3 0 9995 2 41188 47.0023 325.6543 0002555 62.6974 297.4172 14.58718967544538 ORBCOMM FM116 1 41189U 15081L 26061.25260051 .00001002 00000+0 24889-3 0 9990 2 41189 47.0025 56.1736 0002704 286.7373 73.3216 14.58709031543327